TimeEST,TemperatureF,Dew PointF,Humidity,Sea Level PressureIn,VisibilityMPH,Wind Direction,Wind SpeedMPH,Gust SpeedMPH,PrecipitationIn,Events,Conditions,WindDirDegrees,DateUTC
12:15 AM,21.2,21.2,100,30.01,7.0,WNW,9.2,-,N/A,,Overcast,290,2013-02-25 05:15:00
12:35 AM,21.2,21.2,100,30.01,7.0,WNW,6.9,-,N/A,,Overcast,300,2013-02-25 05:35:00
12:55 AM,21.2,21.2,100,30.01,10.0,WNW,6.9,-,N/A,,Overcast,290,2013-02-25 05:55:00
1:15 AM,21.2,21.2,100,30.02,10.0,WNW,3.5,-,N/A,,Overcast,290,2013-02-25 06:15:00
1:55 AM,21.2,21.2,100,30.02,10.0,NW,3.5,-,N/A,,Mostly Cloudy,310,2013-02-25 06:55:00
2:15 AM,21.2,21.2,100,30.02,10.0,NW,3.5,-,N/A,,Overcast,310,2013-02-25 07:15:00
2:55 AM,21.2,21.2,100,30.02,10.0,NW,3.5,-,N/A,,Overcast,310,2013-02-25 07:55:00
3:15 AM,21.2,21.2,100,30.02,10.0,NW,4.6,-,N/A,,Overcast,320,2013-02-25 08:15:00
3:35 AM,21.2,21.2,100,30.02,10.0,NW,4.6,-,N/A,,Overcast,310,2013-02-25 08:35:00
4:00 AM,21.2,21.2,100,30.02,10.0,WNW,3.5,-,N/A,,Overcast,300,2013-02-25 09:00:00
4:20 AM,21.2,21.2,100,30.01,10.0,NW,3.5,-,N/A,,Overcast,320,2013-02-25 09:20:00
4:40 AM,21.2,21.2,100,30.01,10.0,NNW,3.5,-,N/A,,Overcast,340,2013-02-25 09:40:00
5:00 AM,21.2,21.2,100,30.02,7.0,North,3.5,-,N/A,,Overcast,350,2013-02-25 10:00:00
5:20 AM,21.2,21.2,100,30.03,10.0,Calm,Calm,-,N/A,,Overcast,0,2013-02-25 10:20:00
5:40 AM,21.2,21.2,100,30.05,10.0,WNW,3.5,-,N/A,,Overcast,300,2013-02-25 10:40:00
5:55 AM,21.2,21.2,100,30.05,10.0,Calm,Calm,-,N/A,,Overcast,0,2013-02-25 10:55:00
6:20 AM,21.2,21.2,100,30.05,10.0,North,4.6,-,N/A,,Overcast,360,2013-02-25 11:20:00
7:00 AM,21.2,21.2,100,30.06,10.0,Calm,Calm,-,N/A,,Mostly Cloudy,0,2013-02-25 12:00:00
7:20 AM,19.4,19.4,100,30.06,7.0,Calm,Calm,-,N/A,,Scattered Clouds,0,2013-02-25 12:20:00
8:00 AM,21.2,21.2,100,30.08,10.0,Calm,Calm,-,N/A,,Scattered Clouds,0,2013-02-25 13:00:00
8:20 AM,21.2,21.2,100,30.08,10.0,NNE,3.5,-,N/A,,Overcast,30,2013-02-25 13:20:00
8:40 AM,23.0,21.2,93,30.08,10.0,North,4.6,-,N/A,,Overcast,350,2013-02-25 13:40:00
9:00 AM,23.0,19.4,86,30.08,10.0,North,4.6,-,N/A,,Mostly Cloudy,360,2013-02-25 14:00:00
9:20 AM,24.8,21.2,86,30.08,10.0,NNE,5.8,-,N/A,,Mostly Cloudy,20,2013-02-25 14:20:00
9:40 AM,26.6,19.4,74,30.08,10.0,North,4.6,-,N/A,,Mostly Cloudy,350,2013-02-25 14:40:00
10:00 AM,26.6,21.2,80,30.08,10.0,North,4.6,-,N/A,,Scattered Clouds,360,2013-02-25 15:00:00
10:20 AM,26.6,19.4,74,30.09,10.0,NE,3.5,-,N/A,,Clear,40,2013-02-25 15:20:00
10:40 AM,26.6,19.4,74,30.09,10.0,NNE,3.5,-,N/A,,Clear,30,2013-02-25 15:40:00
11:00 AM,28.4,19.4,69,30.09,10.0,Calm,Calm,-,N/A,,Clear,0,2013-02-25 16:00:00
11:20 AM,28.4,21.2,74,30.09,10.0,Calm,Calm,-,N/A,,Clear,0,2013-02-25 16:20:00
11:40 AM,30.2,19.4,64,30.08,10.0,Calm,Calm,-,N/A,,Clear,0,2013-02-25 16:40:00
12:00 PM,32.0,19.4,60,30.08,10.0,East,4.6,-,N/A,,Clear,80,2013-02-25 17:00:00
12:20 PM,32.0,19.4,60,30.08,10.0,NNE,4.6,-,N/A,,Clear,30,2013-02-25 17:20:00
12:40 PM,32.0,21.2,64,30.07,10.0,ENE,3.5,-,N/A,,Clear,70,2013-02-25 17:40:00
1:00 PM,32.0,23.0,69,30.06,10.0,East,3.5,-,N/A,,Clear,100,2013-02-25 18:00:00
1:20 PM,33.8,21.2,60,30.05,10.0,Calm,Calm,-,N/A,,Clear,0,2013-02-25 18:20:00
1:40 PM,33.8,23.0,65,30.04,10.0,East,6.9,-,N/A,,Clear,100,2013-02-25 18:40:00
2:00 PM,35.6,23.0,60,30.04,10.0,SE,6.9,-,N/A,,Clear,130,2013-02-25 19:00:00
2:20 PM,35.6,19.4,52,30.03,10.0,East,4.6,-,N/A,,Clear,100,2013-02-25 19:20:00
2:40 PM,35.6,21.2,56,30.03,10.0,East,4.6,-,N/A,,Clear,90,2013-02-25 19:40:00
3:00 PM,35.6,19.4,52,30.04,10.0,SE,5.8,-,N/A,,Clear,140,2013-02-25 20:00:00
3:20 PM,35.6,19.4,52,30.04,10.0,SE,5.8,-,N/A,,Clear,140,2013-02-25 20:20:00
3:40 PM,35.6,19.4,52,30.04,10.0,SE,8.1,-,N/A,,Clear,130,2013-02-25 20:40:00
4:00 PM,35.6,19.4,52,30.03,10.0,SE,4.6,-,N/A,,Clear,140,2013-02-25 21:00:00
4:20 PM,35.6,19.4,52,30.04,10.0,ESE,8.1,-,N/A,,Clear,110,2013-02-25 21:20:00
4:40 PM,33.8,17.6,52,30.03,10.0,ESE,4.6,-,N/A,,Clear,110,2013-02-25 21:40:00
5:00 PM,33.8,17.6,52,30.03,10.0,ESE,9.2,-,N/A,,Clear,110,2013-02-25 22:00:00
5:20 PM,33.8,17.6,52,30.03,10.0,ESE,10.4,-,N/A,,Clear,110,2013-02-25 22:20:00
5:40 PM,32.0,17.6,55,30.04,10.0,ESE,8.1,-,N/A,,Clear,120,2013-02-25 22:40:00
6:00 PM,32.0,17.6,55,30.04,10.0,ESE,11.5,-,N/A,,Clear,110,2013-02-25 23:00:00
6:20 PM,32.0,17.6,55,30.03,10.0,ESE,9.2,-,N/A,,Clear,110,2013-02-25 23:20:00
6:40 PM,30.2,17.6,60,30.04,10.0,ESE,10.4,-,N/A,,Clear,120,2013-02-25 23:40:00
7:00 PM,30.2,17.6,60,30.05,10.0,SE,10.4,-,N/A,,Clear,130,2013-02-26 00:00:00
7:20 PM,30.2,17.6,60,30.04,10.0,ESE,10.4,-,N/A,,Clear,120,2013-02-26 00:20:00
7:40 PM,30.2,17.6,60,30.04,10.0,ESE,12.7,-,N/A,,Clear,120,2013-02-26 00:40:00
8:00 PM,30.2,17.6,60,30.04,10.0,ESE,15.0,-,N/A,,Clear,120,2013-02-26 01:00:00
8:20 PM,30.2,17.6,60,30.04,10.0,ESE,16.1,23.0,N/A,,Clear,120,2013-02-26 01:20:00
8:40 PM,30.2,17.6,60,30.03,10.0,SE,16.1,23.0,N/A,,Clear,130,2013-02-26 01:40:00
9:00 PM,30.2,19.4,64,30.03,10.0,SE,15.0,18.4,N/A,,Clear,130,2013-02-26 02:00:00
9:20 PM,28.4,17.6,64,30.03,10.0,SE,16.1,-,N/A,,Clear,130,2013-02-26 02:20:00
9:40 PM,28.4,17.6,64,30.02,10.0,ESE,17.3,-,N/A,,Clear,120,2013-02-26 02:40:00
10:00 PM,28.4,17.6,64,30.01,10.0,SE,18.4,24.2,N/A,,Clear,130,2013-02-26 03:00:00
10:20 PM,28.4,19.4,69,29.99,10.0,SE,19.6,25.3,N/A,,Clear,130,2013-02-26 03:20:00
11:00 PM,28.4,19.4,69,30.01,10.0,SE,19.6,-,N/A,,Clear,140,2013-02-26 04:00:00
11:20 PM,28.4,19.4,69,30.01,10.0,SE,19.6,24.2,N/A,,Clear,140,2013-02-26 04:20:00
11:40 PM,28.4,19.4,69,29.99,10.0,SE,19.6,-,N/A,,Clear,140,2013-02-26 04:40:00